Simultaneous Nadir Overpasses (SNOs) Predictions

Prediction of SNOs between METOP-C and LANDSAT-8 Satellite Orbit:

Table of predicted SNOs for the next 14.0 days since TLE Epoch: 6/15/2019
Index Date (METOP-C) Time (METOP-C) Lat,Lon (METOP-C) SZA (METOP-C ) Date (LANDSAT-8) Time (LANDSAT-8) Lat,Lon (LANDSAT-8) SZA (LANDSAT-8 ) Distance(km) Time Diff (sec)
1 06/15/2019 15:44:55 -81.11, 163.39 120.07 06/15/2019 15:45:40 -81.12, 163.55 120.03 2.90 45
2 06/15/2019 16:35:32 81.15, -28.20 60.07 06/15/2019 16:35:05 81.15, -28.36 60.04 2.68 27
3 06/18/2019 11:19:16 -81.13,-129.75 120.12 06/18/2019 11:19:55 -81.13,-129.90 120.12 2.65 39
4 06/18/2019 12:09:54 81.15, 38.29 59.98 06/18/2019 12:09:20 81.15, 38.16 59.95 2.12 34
5 06/21/2019 06:53:39 -81.13, -63.27 120.16 06/21/2019 06:54:11 -81.13, -63.38 120.16 1.99 32
6 06/21/2019 07:44:17 81.16, 104.78 59.94 06/21/2019 07:43:36 81.16, 104.66 59.91 2.01 41
7 06/24/2019 02:28:02 -81.14, 3.21 120.14 06/24/2019 02:28:27 -81.14, 3.11 120.14 1.72 25
8 06/24/2019 03:18:40 81.16, 171.27 59.96 06/24/2019 03:17:52 81.16, 171.14 59.92 2.33 48
9 06/26/2019 22:02:24 -81.14, 69.69 120.07 06/26/2019 22:02:42 -81.14, 69.58 120.08 1.81 18




NCC Satellite Simultaneous Nadir Overpasses (SNOs) Prediction Service
